Weather History for KHHW - January, 2013

Change the Weather History Date:

Sunday, January 6, 2013

  Actual Average Record
Temperature  
Mean Temperature 41 °F -  
Max Temperature 54 °F 52 °F 59 °F (2015)
Min Temperature 28 °F 32 °F 14 °F (2014)
Degree Days  
Heating Degree Days 24    
Moisture  
Dew Point 25 °F    
Average Humidity 62    
Maximum Humidity 99    
Minimum Humidity 23    
Precipitation  
Precipitation 0.00 in - - ()
Sea Level Pressure  
Sea Level Pressure 30.32 in    
Wind  
Wind Speed 4 mph (NNW)    
Max Wind Speed 14 mph    
Max Gust Speed 18 mph    
Visibility 9 miles    
Events      
Averages and records for this station are not official NWS values.
T = Trace of Precipitation, MM = Missing Value Source: NWS Daily Summary

Daily Weather History Graph

Daily Weather History Graph

Search for Another Location

Airport or City:

Trip Planner

Search our weather history database for the weather conditions in past years. The results will help you decide how hot, cold, wet, or windy it might be!

Date:

Astronomy

Jan. 06, 2013 Rise Set
Actual Time 7:28 AM CST 5:28 PM CST
Civil Twilight 7:00 AM CST 5:55 PM CST
Nautical Twilight 6:29 AM CST 6:26 PM CST
Astronomical Twilight 5:59 AM CST 6:57 PM CST
Moon 1:49 AM CST (1/6) 12:51 PM CST (1/6)
Length of Visible Light 10h 54m
Length of Day
9h 59m
Waning Crescent, 33% of the Moon is Illuminated
Jan 6
Waning Crescent
Jan 11
New
Jan 18
First Quarter
Jan 26
Full
Feb 3
Last Quarter

Hourly Weather History & Observations

Time (CST) Temp. Windchill Dew Point Humidity Pressure Visibility Wind Dir Wind Speed Gust Speed Precip Events Conditions
12:15 AM 35.2 °F - 33.1 °F 92% 30.28 in 10.0 mi Calm Calm - N/A   Clear
12:35 AM 33.4 °F - 32.0 °F 94% 30.28 in 10.0 mi Calm Calm - N/A   Clear
12:55 AM 33.1 °F - 32.0 °F 96% 30.28 in 7.0 mi Calm Calm - N/A   Clear
1:15 AM 33.8 °F - 32.2 °F 94% 30.28 in 10.0 mi Calm Calm - N/A   Clear
1:35 AM 32.0 °F 28.7 °F 31.3 °F 97% 30.29 in 5.0 mi NNW 3.5 mph - N/A   Clear
1:55 AM 32.2 °F - 30.9 °F 95% 30.29 in 7.0 mi Calm Calm - N/A   Clear
2:15 AM 30.4 °F - 29.3 °F 96% 30.30 in 5.0 mi Calm Calm - N/A   Clear
2:35 AM 33.6 °F - 32.5 °F 96% 30.30 in 10.0 mi Calm Calm - N/A   Clear
2:55 AM 32.9 °F - 32.0 °F 96% 30.30 in 7.0 mi Calm Calm - N/A   Clear
3:15 AM 32.0 °F - 31.1 °F 96% 30.30 in 5.0 mi Calm Calm - N/A   Clear
3:35 AM 30.4 °F 26.9 °F 29.5 °F 96% 30.30 in 5.0 mi West 3.5 mph - N/A   Clear
3:55 AM 31.5 °F 28.1 °F 30.7 °F 97% 30.30 in 7.0 mi WNW 3.5 mph - N/A   Clear
4:15 AM 31.1 °F 27.7 °F 30.2 °F 96% 30.29 in 7.0 mi West 3.5 mph - N/A   Clear
4:35 AM 32.0 °F 26.4 °F 31.6 °F 99% 30.29 in 7.0 mi WNW 5.8 mph - N/A   Clear
4:55 AM 32.0 °F 26.4 °F 31.1 °F 96% 30.28 in 7.0 mi West 5.8 mph - N/A   Clear
5:15 AM 30.9 °F 24.3 °F 29.8 °F 96% 30.29 in 5.0 mi WNW 6.9 mph - N/A   Clear
5:35 AM 30.0 °F 23.2 °F 29.1 °F 96% 30.29 in 4.0 mi WNW 6.9 mph - N/A   Clear
5:55 AM 29.1 °F 21.3 °F 28.2 °F 96% 30.30 in 4.0 mi WNW 8.1 mph - N/A   Clear
6:15 AM 29.1 °F 22.1 °F 28.2 °F 96% 30.30 in 5.0 mi WNW 6.9 mph - N/A   Clear
6:35 AM 29.3 °F 21.5 °F 28.2 °F 96% 30.31 in 7.0 mi WNW 8.1 mph - N/A   Clear
6:55 AM 28.9 °F 22.8 °F 27.3 °F 94% 30.31 in 10.0 mi WNW 5.8 mph - N/A   Clear
7:15 AM 29.3 °F 23.2 °F 27.3 °F 92% 30.32 in 10.0 mi WNW 5.8 mph - N/A   Clear
7:35 AM 28.9 °F 23.9 °F 26.2 °F 90% 30.34 in 10.0 mi WNW 4.6 mph - N/A   Clear
7:55 AM 28.9 °F 22.8 °F 26.4 °F 90% 30.34 in 10.0 mi WNW 5.8 mph - N/A   Clear
8:35 AM 32.0 °F 26.4 °F 29.3 °F 90% 30.35 in 10.0 mi WNW 5.8 mph - N/A   Clear
8:55 AM 33.1 °F 27.7 °F 29.8 °F 88% 30.36 in 10.0 mi NW 5.8 mph - N/A   Clear
9:15 AM 35.4 °F 30.5 °F 30.0 °F 81% 30.36 in 10.0 mi NW 5.8 mph - N/A   Clear
9:35 AM 37.2 °F 32.6 °F 31.1 °F 79% 30.37 in 10.0 mi NW 5.8 mph - N/A   Clear
9:55 AM 39.0 °F 34.8 °F 31.1 °F 73% 30.37 in 10.0 mi NNW 5.8 mph - N/A   Clear
10:15 AM 41.4 °F 35.7 °F 29.7 °F 63% 30.37 in 10.0 mi NNW 9.2 mph - N/A   Clear
10:35 AM 42.6 °F 37.8 °F 27.3 °F 55% 30.37 in 10.0 mi North 8.1 mph - N/A   Clear
10:55 AM 44.2 °F 39.7 °F 27.7 °F 52% 30.37 in 10.0 mi North 8.1 mph - N/A   Clear
11:15 AM 45.5 °F 42.5 °F 27.1 °F 49% 30.37 in 10.0 mi NNW 5.8 mph - N/A   Clear
11:35 AM 46.8 °F - 26.1 °F 44% 30.36 in 10.0 mi NNW 9.2 mph - N/A   Clear
11:55 AM 49.1 °F - 24.3 °F 38% 30.36 in 10.0 mi NNE 5.8 mph - N/A   Clear
12:15 PM 50.0 °F - 21.4 °F 32% 30.35 in 10.0 mi North 8.1 mph - N/A   Clear
12:35 PM 50.9 °F - 20.5 °F 30% 30.34 in 10.0 mi North 13.8 mph - N/A   Clear
12:55 PM 52.0 °F - 19.6 °F 28% 30.33 in 10.0 mi NNW 12.7 mph - N/A   Clear
1:15 PM 52.5 °F - 18.5 °F 26% 30.32 in 10.0 mi North 11.5 mph - N/A   Clear
1:35 PM 53.4 °F - 16.5 °F 23% 30.31 in 10.0 mi North 11.5 mph 18.4 mph N/A   Clear
1:55 PM 53.6 °F - 18.0 °F 25% 30.31 in 10.0 mi North 12.7 mph 16.1 mph N/A   Clear
2:15 PM 53.8 °F - 18.7 °F 25% 30.31 in 10.0 mi NNW 12.7 mph - N/A   Clear
2:35 PM 54.1 °F - 19.0 °F 25% 30.31 in 10.0 mi North 12.7 mph - N/A   Clear
2:55 PM 54.5 °F - 19.2 °F 25% 30.31 in 10.0 mi NNW 9.2 mph - N/A   Clear
3:15 PM 54.1 °F - 18.0 °F 24% 30.31 in 10.0 mi North 8.1 mph - N/A   Clear
3:35 PM 54.3 °F - 18.3 °F 24% 30.31 in 10.0 mi North 8.1 mph - N/A   Clear
3:55 PM 54.1 °F - 18.0 °F 24% 30.32 in 10.0 mi NNW 9.2 mph - N/A   Clear
4:35 PM 52.7 °F - 18.7 °F 26% 30.32 in 10.0 mi North 6.9 mph - N/A   Clear
4:55 PM 51.4 °F - 19.0 °F 28% 30.31 in 10.0 mi North 5.8 mph - N/A   Clear
5:15 PM 49.6 °F - 19.0 °F 30% 30.31 in 10.0 mi NNW 5.8 mph - N/A   Clear
5:35 PM 47.1 °F - 19.6 °F 34% 30.32 in 10.0 mi North 5.8 mph - N/A   Clear
5:55 PM 45.7 °F 42.0 °F 19.8 °F 36% 30.32 in 10.0 mi NNW 6.9 mph - N/A   Clear
6:15 PM 44.8 °F 41.0 °F 19.9 °F 37% 30.31 in 10.0 mi North 6.9 mph - N/A   Clear
6:35 PM 43.7 °F 40.3 °F 19.4 °F 38% 30.32 in 10.0 mi North 5.8 mph - N/A   Clear
6:55 PM 41.9 °F - 19.4 °F 41% 30.33 in 10.0 mi Calm Calm - N/A   Clear
7:15 PM 42.8 °F 41.1 °F 19.4 °F 39% 30.32 in 10.0 mi North 3.5 mph - N/A   Clear
7:35 PM 41.7 °F - 19.4 °F 41% 30.33 in 10.0 mi Calm Calm - N/A   Clear
7:55 PM 41.4 °F 39.4 °F 19.4 °F 41% 30.33 in 10.0 mi North 3.5 mph - N/A   Clear
8:15 PM 41.2 °F 39.2 °F 19.0 °F 41% 30.33 in 10.0 mi North 3.5 mph - N/A   Clear
8:35 PM 39.7 °F 37.6 °F 18.9 °F 43% 30.34 in 10.0 mi North 3.5 mph - N/A   Clear
9:15 PM 38.3 °F 34.8 °F 19.0 °F 46% 30.34 in 10.0 mi NNW 4.6 mph - N/A   Clear
9:55 PM 37.4 °F 33.8 °F 19.4 °F 48% 30.35 in 10.0 mi NNW 4.6 mph - N/A   Clear
10:15 PM 36.9 °F 33.1 °F 19.4 °F 49% 30.35 in 10.0 mi North 4.6 mph - N/A   Clear
10:35 PM 36.9 °F 34.3 °F 19.8 °F 50% 30.35 in 10.0 mi NNE 3.5 mph - N/A   Clear
10:55 PM 36.5 °F 33.9 °F 19.9 °F 51% 30.35 in 10.0 mi NNE 3.5 mph - N/A   Clear
11:35 PM 36.1 °F - 20.1 °F 52% 30.35 in 10.0 mi Calm Calm - N/A   Clear
11:55 PM 34.9 °F 32.0 °F 20.3 °F 55% 30.35 in 10.0 mi North 3.5 mph - N/A   Clear